Tracking 29065 objects as of 22-Jul-2024
HD Live streaming from Space Station
objects crossing your sky now

STARLINK-5676

Track STARLINK-5676 now!
10-day predictions
STARLINK-5676 is classified as:


NORAD ID: 55464
Int'l Code: 2023-015R
Perigee: 565.2 km
Apogee: 567.3 km
Inclination: 43.0 °
Period: 95.8 minutes
Semi major axis: 6937 km
RCS: Unknown
Launch date: February 2, 2023
Source: United States (US)
Launch site: AIR FORCE EASTERN TEST RANGE (AFETR)
Your satellite tracking list
Your tracking list is empty




NASA's NSSDC Master Catalog

Two Line Element Set (TLE):
1 55464U 23015R   24203.83555295  .00001018  00000-0  90458-4 0  9998
2 55464  43.0016 323.5634 0001536 271.3625  88.7042 15.02535002 81121
Source of the keplerian elements: AFSPC